Time,TemperatureF,DewpointF,PressureIn,WindDirection,WindDirectionDegrees,WindSpeedMPH,WindSpeedGustMPH,Humidity,HourlyPrecipIn,Conditions,Clouds,dailyrainin,SoftwareType,DateUTC
2013-05-04 00:00:00,44.8,21.2,29.18,North,-999,-999.0,0.0,39,0.00,,,0.00,WeatherTracker,2013-05-04 05:00:00,
2013-05-04 00:05:00,45.0,23.0,29.18,North,-999,-999.0,0.0,40,0.00,,,0.00,WeatherTracker,2013-05-04 05:05:00,
2013-05-04 00:15:00,44.6,23.0,29.18,North,-999,-999.0,0.0,41,0.00,,,0.00,WeatherTracker,2013-05-04 05:15:00,
2013-05-04 00:20:00,44.8,23.0,29.18,North,-999,-999.0,0.0,42,0.00,,,0.00,WeatherTracker,2013-05-04 05:20:00,
2013-05-04 00:25:00,45.1,24.8,29.15,North,-999,-999.0,0.0,45,0.00,,,0.00,WeatherTracker,2013-05-04 05:25:00,
2013-05-04 00:35:00,45.3,24.8,29.15,North,-999,-999.0,0.0,44,0.00,,,0.00,WeatherTracker,2013-05-04 05:35:00,
2013-05-04 00:40:00,45.3,23.0,29.15,North,-999,-999.0,0.0,43,0.00,,,0.00,WeatherTracker,2013-05-04 05:40:00,
2013-05-04 00:50:00,45.9,24.8,29.15,North,-999,-999.0,0.0,43,0.00,,,0.00,WeatherTracker,2013-05-04 05:50:00,
2013-05-04 00:55:00,45.9,23.0,29.15,North,-999,-999.0,0.0,42,0.00,,,0.00,WeatherTracker,2013-05-04 05:55:00,
2013-05-04 01:00:00,45.3,23.0,29.15,North,-999,-999.0,0.0,43,0.00,,,0.00,WeatherTracker,2013-05-04 06:00:00,
2013-05-04 01:10:00,45.0,24.8,29.15,North,-999,-999.0,0.0,44,0.00,,,0.00,WeatherTracker,2013-05-04 06:10:00,
2013-05-04 01:15:00,44.6,24.8,29.15,North,-999,-999.0,0.0,44,0.00,,,0.00,WeatherTracker,2013-05-04 06:15:00,
2013-05-04 01:25:00,44.1,24.8,29.15,North,-999,-999.0,0.0,46,0.00,,,0.00,WeatherTracker,2013-05-04 06:25:00,
2013-05-04 01:30:00,44.2,24.8,29.15,North,-999,-999.0,0.0,46,0.00,,,0.00,WeatherTracker,2013-05-04 06:30:00,
2013-05-04 01:35:00,44.1,24.8,29.15,North,-999,-999.0,0.0,46,0.00,,,0.00,WeatherTracker,2013-05-04 06:35:00,
2013-05-04 01:45:00,44.2,24.8,29.15,North,-999,-999.0,0.0,47,0.00,,,0.00,WeatherTracker,2013-05-04 06:45:00,
2013-05-04 01:50:00,44.2,26.6,29.15,North,-999,-999.0,0.0,48,0.00,,,0.00,WeatherTracker,2013-05-04 06:50:00,
2013-05-04 02:00:00,44.2,26.6,29.15,North,-999,-999.0,0.0,48,0.00,,,0.00,WeatherTracker,2013-05-04 07:00:00,
2013-05-04 02:05:00,44.4,26.6,29.15,North,-999,-999.0,0.0,49,0.00,,,0.00,WeatherTracker,2013-05-04 07:05:00,
2013-05-04 02:15:00,44.6,26.6,29.15,North,-999,-999.0,0.0,49,0.00,,,0.00,WeatherTracker,2013-05-04 07:15:00,
2013-05-04 02:20:00,44.6,26.6,29.15,North,-999,-999.0,0.0,49,0.00,,,0.00,WeatherTracker,2013-05-04 07:20:00,
2013-05-04 02:30:00,44.8,26.6,29.12,North,-999,-999.0,0.0,49,0.00,,,0.00,WeatherTracker,2013-05-04 07:30:00,
2013-05-04 02:35:00,44.8,26.6,29.12,North,-999,-999.0,0.0,50,0.00,,,0.00,WeatherTracker,2013-05-04 07:35:00,
2013-05-04 02:45:00,45.0,26.6,29.12,North,-999,-999.0,0.0,49,0.00,,,0.00,WeatherTracker,2013-05-04 07:45:00,
2013-05-04 02:50:00,45.3,26.6,29.12,North,-999,-999.0,0.0,49,0.00,,,0.00,WeatherTracker,2013-05-04 07:50:00,
2013-05-04 03:00:00,46.0,28.4,29.12,North,-999,-999.0,0.0,49,0.00,,,0.00,WeatherTracker,2013-05-04 08:00:00,
2013-05-04 03:10:00,46.4,28.4,29.12,North,-999,-999.0,0.0,47,0.00,,,0.00,WeatherTracker,2013-05-04 08:10:00,
2013-05-04 03:15:00,46.2,26.6,29.12,North,-999,-999.0,0.0,47,0.00,,,0.00,WeatherTracker,2013-05-04 08:15:00,
2013-05-04 03:20:00,46.2,26.6,29.12,North,-999,-999.0,0.0,47,0.00,,,0.00,WeatherTracker,2013-05-04 08:20:00,
2013-05-04 03:30:00,46.0,26.6,29.12,North,-999,-999.0,0.0,48,0.00,,,0.00,WeatherTracker,2013-05-04 08:30:00,
2013-05-04 03:35:00,45.9,28.4,29.12,North,-999,-999.0,0.0,49,0.00,,,0.00,WeatherTracker,2013-05-04 08:35:00,
2013-05-04 03:45:00,45.3,26.6,29.12,North,-999,-999.0,0.0,49,0.00,,,0.00,WeatherTracker,2013-05-04 08:45:00,
2013-05-04 03:55:00,44.8,26.6,29.12,North,-999,-999.0,0.0,50,0.00,,,0.00,WeatherTracker,2013-05-04 08:55:00,
2013-05-04 04:00:00,44.6,28.4,29.12,North,-999,-999.0,0.0,51,0.00,,,0.00,WeatherTracker,2013-05-04 09:00:00,
2013-05-04 04:05:00,44.6,28.4,29.12,North,-999,-999.0,0.0,51,0.00,,,0.00,WeatherTracker,2013-05-04 09:05:00,
2013-05-04 04:10:00,44.4,28.4,29.12,North,-999,-999.0,0.0,51,0.00,,,0.00,WeatherTracker,2013-05-04 09:10:00,
2013-05-04 04:20:00,44.2,28.4,29.12,North,-999,-999.0,0.0,52,0.00,,,0.00,WeatherTracker,2013-05-04 09:20:00,
2013-05-04 04:25:00,44.2,28.4,29.12,North,-999,-999.0,0.0,52,0.00,,,0.00,WeatherTracker,2013-05-04 09:25:00,
2013-05-04 04:30:00,44.1,28.4,29.12,North,-999,-999.0,0.0,52,0.00,,,0.00,WeatherTracker,2013-05-04 09:30:00,
2013-05-04 04:40:00,43.9,28.4,29.12,North,-999,-999.0,0.0,53,0.00,,,0.00,WeatherTracker,2013-05-04 09:40:00,
2013-05-04 04:45:00,43.7,28.4,29.12,North,-999,-999.0,0.0,54,0.00,,,0.00,WeatherTracker,2013-05-04 09:45:00,
2013-05-04 04:55:00,43.5,28.4,29.12,North,-999,-999.0,0.0,54,0.00,,,0.00,WeatherTracker,2013-05-04 09:55:00,
2013-05-04 05:00:00,43.5,28.4,29.12,North,-999,-999.0,0.0,56,0.00,,,0.00,WeatherTracker,2013-05-04 10:00:00,
2013-05-04 05:05:00,43.5,30.2,29.12,North,-999,-999.0,0.0,57,0.00,,,0.00,WeatherTracker,2013-05-04 10:05:00,
2013-05-04 05:15:00,43.3,30.2,29.09,North,-999,-999.0,0.0,57,0.00,,,0.00,WeatherTracker,2013-05-04 10:15:00,
2013-05-04 05:20:00,43.3,30.2,29.09,North,-999,-999.0,0.0,57,0.00,,,0.00,WeatherTracker,2013-05-04 10:20:00,
2013-05-04 05:30:00,43.3,30.2,29.09,North,-999,-999.0,0.0,57,0.00,,,0.00,WeatherTracker,2013-05-04 10:30:00,
2013-05-04 05:35:00,43.3,30.2,29.09,North,-999,-999.0,0.0,57,0.00,,,0.00,WeatherTracker,2013-05-04 10:35:00,
2013-05-04 05:40:00,43.3,30.2,29.09,North,-999,-999.0,0.0,57,0.00,,,0.00,WeatherTracker,2013-05-04 10:40:00,
2013-05-04 05:45:00,43.3,30.2,29.09,North,-999,-999.0,0.0,59,0.00,,,0.00,WeatherTracker,2013-05-04 10:45:00,
2013-05-04 05:55:00,43.5,30.2,29.09,North,-999,-999.0,0.0,60,0.00,,,0.00,WeatherTracker,2013-05-04 10:55:00,
2013-05-04 06:05:00,43.5,30.2,29.09,North,-999,-999.0,0.0,58,0.00,,,0.00,WeatherTracker,2013-05-04 11:05:00,
2013-05-04 06:10:00,43.7,30.2,29.09,North,-999,-999.0,0.0,58,0.00,,,0.00,WeatherTracker,2013-05-04 11:10:00,
2013-05-04 06:15:00,43.9,30.2,29.09,North,-999,-999.0,0.0,58,0.00,,,0.00,WeatherTracker,2013-05-04 11:15:00,
2013-05-04 06:25:00,44.1,30.2,29.09,North,-999,-999.0,0.0,59,0.00,,,0.00,WeatherTracker,2013-05-04 11:25:00,
2013-05-04 06:30:00,44.1,30.2,29.09,North,-999,-999.0,0.0,58,0.00,,,0.00,WeatherTracker,2013-05-04 11:30:00,
2013-05-04 06:40:00,44.2,30.2,29.09,North,-999,-999.0,0.0,58,0.00,,,0.00,WeatherTracker,2013-05-04 11:40:00,
2013-05-04 06:45:00,44.2,30.2,29.09,North,-999,-999.0,0.0,57,0.00,,,0.00,WeatherTracker,2013-05-04 11:45:00,
2013-05-04 06:55:00,44.2,30.2,29.09,North,-999,-999.0,0.0,56,0.00,,,0.00,WeatherTracker,2013-05-04 11:55:00,
2013-05-04 07:00:00,44.2,30.2,29.09,North,-999,-999.0,0.0,56,0.00,,,0.00,WeatherTracker,2013-05-04 12:00:00,
2013-05-04 07:10:00,44.4,30.2,29.09,North,-999,-999.0,0.0,56,0.00,,,0.00,WeatherTracker,2013-05-04 12:10:00,
2013-05-04 07:15:00,44.2,30.2,29.09,North,-999,-999.0,0.0,57,0.00,,,0.00,WeatherTracker,2013-05-04 12:15:00,
2013-05-04 07:25:00,44.1,30.2,29.12,North,-999,-999.0,0.0,59,0.00,,,0.00,WeatherTracker,2013-05-04 12:25:00,
2013-05-04 07:35:00,43.7,32.0,29.12,North,-999,-999.0,0.0,61,0.00,,,0.00,WeatherTracker,2013-05-04 12:35:00,
2013-05-04 07:41:00,43.5,30.2,29.12,North,-999,-999.0,0.0,60,0.00,,,0.00,WeatherTracker,2013-05-04 12:41:00,
2013-05-04 07:50:00,43.0,30.2,29.12,North,-999,-999.0,0.0,62,0.00,,,0.00,WeatherTracker,2013-05-04 12:50:00,
2013-05-04 07:55:00,42.8,30.2,29.12,North,-999,-999.0,0.0,62,0.00,,,0.00,WeatherTracker,2013-05-04 12:55:00,
2013-05-04 08:00:00,42.8,32.0,29.12,North,-999,-999.0,0.0,64,0.00,,,0.00,WeatherTracker,2013-05-04 13:00:00,
2013-05-04 08:10:00,42.4,33.8,29.12,North,-999,-999.0,0.0,68,0.00,,,0.00,WeatherTracker,2013-05-04 13:10:00,
2013-05-04 08:15:00,42.4,33.8,29.12,North,-999,-999.0,0.0,69,0.00,,,0.00,WeatherTracker,2013-05-04 13:15:00,
2013-05-04 08:25:00,42.3,33.8,29.12,North,-999,-999.0,0.0,70,0.00,,,0.00,WeatherTracker,2013-05-04 13:25:00,
2013-05-04 08:30:00,42.3,33.8,29.12,North,-999,-999.0,0.0,70,0.00,,,0.00,WeatherTracker,2013-05-04 13:30:00,
2013-05-04 08:35:00,42.3,33.8,29.12,North,-999,-999.0,0.0,70,0.00,,,0.00,WeatherTracker,2013-05-04 13:35:00,
2013-05-04 08:45:00,42.4,33.8,29.12,North,-999,-999.0,0.0,70,0.00,,,0.00,WeatherTracker,2013-05-04 13:45:00,
2013-05-04 08:50:00,42.4,33.8,29.12,North,-999,-999.0,0.0,70,0.00,,,0.00,WeatherTracker,2013-05-04 13:50:00,
2013-05-04 09:00:00,42.3,33.8,29.09,North,-999,-999.0,0.0,71,0.00,,,0.00,WeatherTracker,2013-05-04 14:00:00,
2013-05-04 09:05:00,42.3,33.8,29.09,North,-999,-999.0,0.0,71,0.00,,,0.00,WeatherTracker,2013-05-04 14:05:00,
2013-05-04 09:10:00,42.1,33.8,29.12,North,-999,-999.0,0.0,71,0.00,,,0.00,WeatherTracker,2013-05-04 14:10:00,
2013-05-04 09:20:00,42.1,33.8,29.12,North,-999,-999.0,0.0,72,0.00,,,0.00,WeatherTracker,2013-05-04 14:20:00,
2013-05-04 09:25:00,42.1,33.8,29.09,North,-999,-999.0,0.0,72,0.00,,,0.00,WeatherTracker,2013-05-04 14:25:00,
2013-05-04 09:35:00,42.1,33.8,29.09,North,-999,-999.0,0.0,72,0.00,,,0.00,WeatherTracker,2013-05-04 14:35:00,
2013-05-04 09:43:00,42.1,33.8,29.09,North,-999,-999.0,0.0,73,0.00,,,0.00,WeatherTracker,2013-05-04 14:43:00,
2013-05-04 09:50:00,41.9,35.6,29.09,North,-999,-999.0,0.0,74,0.00,,,0.00,WeatherTracker,2013-05-04 14:50:00,
2013-05-04 09:55:00,41.9,35.6,29.09,North,-999,-999.0,0.0,74,0.00,,,0.00,WeatherTracker,2013-05-04 14:55:00,
2013-05-04 10:00:00,41.7,33.8,29.09,North,-999,-999.0,0.0,74,0.00,,,0.00,WeatherTracker,2013-05-04 15:00:00,
2013-05-04 10:10:00,42.3,35.6,29.09,North,-999,-999.0,0.0,75,0.00,,,0.00,WeatherTracker,2013-05-04 15:10:00,
2013-05-04 10:20:00,42.3,35.6,29.09,North,-999,-999.0,0.0,75,0.00,,,0.00,WeatherTracker,2013-05-04 15:20:00,
2013-05-04 10:30:00,42.6,35.6,29.12,North,-999,-999.0,0.0,75,0.00,,,0.00,WeatherTracker,2013-05-04 15:30:00,
2013-05-04 10:40:00,43.3,37.4,29.12,North,-999,-999.0,0.0,75,0.00,,,0.00,WeatherTracker,2013-05-04 15:40:00,
2013-05-04 10:45:00,43.7,37.4,29.12,North,-999,-999.0,0.0,75,0.00,,,0.00,WeatherTracker,2013-05-04 15:45:00,
2013-05-04 10:50:00,44.1,37.4,29.12,North,-999,-999.0,0.0,75,0.00,,,0.00,WeatherTracker,2013-05-04 15:50:00,
2013-05-04 10:55:00,45.0,37.4,29.12,North,-999,-999.0,0.0,76,0.00,,,0.00,WeatherTracker,2013-05-04 15:55:00,
2013-05-04 11:05:00,45.5,37.4,29.12,North,-999,-999.0,0.0,73,0.00,,,0.00,WeatherTracker,2013-05-04 16:05:00,
2013-05-04 11:10:00,45.1,35.6,29.12,North,-999,-999.0,0.0,70,0.00,,,0.00,WeatherTracker,2013-05-04 16:10:00,
2013-05-04 11:20:00,47.3,39.2,29.12,North,-999,-999.0,0.0,70,0.00,,,0.00,WeatherTracker,2013-05-04 16:20:00,
2013-05-04 11:25:00,47.8,37.4,29.12,North,-999,-999.0,0.0,66,0.00,,,0.00,WeatherTracker,2013-05-04 16:25:00,
2013-05-04 11:35:00,46.6,33.8,29.12,North,-999,-999.0,0.0,61,0.00,,,0.00,WeatherTracker,2013-05-04 16:35:00,
2013-05-04 11:45:00,46.4,35.6,29.12,North,-999,-999.0,0.0,63,0.00,,,0.00,WeatherTracker,2013-05-04 16:45:00,
2013-05-04 11:55:00,45.5,33.8,29.12,North,-999,-999.0,0.0,63,0.00,,,0.00,WeatherTracker,2013-05-04 16:55:00,
2013-05-04 12:00:00,45.9,33.8,29.12,North,-999,-999.0,0.0,64,0.00,,,0.00,WeatherTracker,2013-05-04 17:00:00,
2013-05-04 12:05:00,45.9,33.8,29.12,North,-999,-999.0,0.0,64,0.00,,,0.00,WeatherTracker,2013-05-04 17:05:00,
2013-05-04 12:15:00,46.0,33.8,29.12,North,-999,-999.0,0.0,63,0.00,,,0.00,WeatherTracker,2013-05-04 17:15:00,
2013-05-04 12:20:00,46.4,35.6,29.12,North,-999,-999.0,0.0,63,0.00,,,0.00,WeatherTracker,2013-05-04 17:20:00,
2013-05-04 12:30:00,45.9,33.8,29.12,North,-999,-999.0,0.0,63,0.00,,,0.00,WeatherTracker,2013-05-04 17:30:00,
2013-05-04 12:35:00,46.0,33.8,29.12,North,-999,-999.0,0.0,64,0.00,,,0.00,WeatherTracker,2013-05-04 17:35:00,
2013-05-04 12:40:00,46.4,35.6,29.15,North,-999,-999.0,0.0,64,0.00,,,0.00,WeatherTracker,2013-05-04 17:40:00,
2013-05-04 12:45:00,47.5,37.4,29.15,North,-999,-999.0,0.0,65,0.00,,,0.00,WeatherTracker,2013-05-04 17:45:00,
2013-05-04 12:55:00,51.1,39.2,29.15,North,-999,-999.0,0.0,63,0.00,,,0.00,WeatherTracker,2013-05-04 17:55:00,
2013-05-04 13:05:00,48.9,33.8,29.15,North,-999,-999.0,0.0,54,0.00,,,0.00,WeatherTracker,2013-05-04 18:05:00,
2013-05-04 13:10:00,48.2,33.8,29.15,North,-999,-999.0,0.0,55,0.00,,,0.00,WeatherTracker,2013-05-04 18:10:00,
2013-05-04 13:15:00,47.7,33.8,29.15,North,-999,-999.0,0.0,56,0.00,,,0.00,WeatherTracker,2013-05-04 18:15:00,
2013-05-04 13:25:00,47.3,33.8,29.15,North,-999,-999.0,0.0,57,0.00,,,0.00,WeatherTracker,2013-05-04 18:25:00,
2013-05-04 13:30:00,47.3,33.8,29.15,North,-999,-999.0,0.0,58,0.00,,,0.00,WeatherTracker,2013-05-04 18:30:00,
2013-05-04 13:40:00,46.9,33.8,29.15,North,-999,-999.0,0.0,60,0.00,,,0.00,WeatherTracker,2013-05-04 18:40:00,
2013-05-04 13:45:00,46.9,33.8,29.15,North,-999,-999.0,0.0,60,0.00,,,0.00,WeatherTracker,2013-05-04 18:45:00,
2013-05-04 13:50:00,46.8,33.8,29.15,North,-999,-999.0,0.0,61,0.00,,,0.00,WeatherTracker,2013-05-04 18:50:00,
2013-05-04 13:55:00,46.8,33.8,29.12,North,-999,-999.0,0.0,61,0.00,,,0.00,WeatherTracker,2013-05-04 18:55:00,
2013-05-04 14:00:00,46.6,33.8,29.12,North,-999,-999.0,0.0,61,0.00,,,0.00,WeatherTracker,2013-05-04 19:00:00,
2013-05-04 14:05:00,46.6,35.6,29.12,North,-999,-999.0,0.0,63,0.00,,,0.00,WeatherTracker,2013-05-04 19:05:00,
2013-05-04 14:15:00,47.7,37.4,29.15,North,-999,-999.0,0.0,65,0.00,,,0.00,WeatherTracker,2013-05-04 19:15:00,
2013-05-04 14:20:00,47.8,37.4,29.15,North,-999,-999.0,0.0,64,0.00,,,0.00,WeatherTracker,2013-05-04 19:20:00,
2013-05-04 14:25:00,47.8,37.4,29.15,North,-999,-999.0,0.0,63,0.00,,,0.00,WeatherTracker,2013-05-04 19:25:00,
2013-05-04 14:30:00,48.0,37.4,29.15,North,-999,-999.0,0.0,63,0.00,,,0.00,WeatherTracker,2013-05-04 19:30:00,
2013-05-04 14:35:00,47.7,37.4,29.15,North,-999,-999.0,0.0,64,0.00,,,0.00,WeatherTracker,2013-05-04 19:35:00,
2013-05-04 14:45:00,46.9,35.6,29.15,North,-999,-999.0,0.0,64,0.00,,,0.00,WeatherTracker,2013-05-04 19:45:00,
2013-05-04 14:50:00,47.3,37.4,29.15,North,-999,-999.0,0.0,66,0.00,,,0.00,WeatherTracker,2013-05-04 19:50:00,
2013-05-04 15:00:00,47.1,37.4,29.12,North,-999,-999.0,0.0,66,0.00,,,0.00,WeatherTracker,2013-05-04 20:00:00,
2013-05-04 15:10:00,47.7,37.4,29.15,North,-999,-999.0,0.0,68,0.00,,,0.00,WeatherTracker,2013-05-04 20:10:00,
2013-05-04 15:15:00,47.8,39.2,29.15,North,-999,-999.0,0.0,69,0.00,,,0.00,WeatherTracker,2013-05-04 20:15:00,
2013-05-04 15:25:00,47.7,37.4,29.15,North,-999,-999.0,0.0,67,0.00,,,0.00,WeatherTracker,2013-05-04 20:25:00,
2013-05-04 15:30:00,47.3,37.4,29.15,North,-999,-999.0,0.0,67,0.00,,,0.00,WeatherTracker,2013-05-04 20:30:00,
2013-05-04 15:40:00,48.2,39.2,29.15,North,-999,-999.0,0.0,70,0.00,,,0.00,WeatherTracker,2013-05-04 20:40:00,
2013-05-04 15:45:00,48.4,39.2,29.15,North,-999,-999.0,0.0,70,0.00,,,0.00,WeatherTracker,2013-05-04 20:45:00,
2013-05-04 15:50:00,48.6,39.2,29.15,North,-999,-999.0,0.0,69,0.00,,,0.00,WeatherTracker,2013-05-04 20:50:00,
2013-05-04 16:00:00,48.9,39.2,29.15,North,-999,-999.0,0.0,70,0.00,,,0.00,WeatherTracker,2013-05-04 21:00:00,
2013-05-04 16:05:00,48.6,39.2,29.15,North,-999,-999.0,0.0,69,0.00,,,0.00,WeatherTracker,2013-05-04 21:05:00,
2013-05-04 16:15:00,48.0,39.2,29.15,North,-999,-999.0,0.0,70,0.00,,,0.00,WeatherTracker,2013-05-04 21:15:00,
2013-05-04 16:20:00,48.7,41.0,29.15,North,-999,-999.0,0.0,71,0.00,,,0.00,WeatherTracker,2013-05-04 21:20:00,
2013-05-04 16:25:00,48.7,41.0,29.15,North,-999,-999.0,0.0,72,0.00,,,0.00,WeatherTracker,2013-05-04 21:25:00,
2013-05-04 16:35:00,49.5,41.0,29.15,North,-999,-999.0,0.0,70,0.00,,,0.00,WeatherTracker,2013-05-04 21:35:00,
2013-05-04 16:40:00,49.5,39.2,29.15,North,-999,-999.0,0.0,69,0.00,,,0.00,WeatherTracker,2013-05-04 21:40:00,
2013-05-04 16:45:00,48.7,39.2,29.15,North,-999,-999.0,0.0,67,0.00,,,0.00,WeatherTracker,2013-05-04 21:45:00,
2013-05-04 16:55:00,49.1,41.0,29.15,North,-999,-999.0,0.0,71,0.00,,,0.00,WeatherTracker,2013-05-04 21:55:00,
2013-05-04 17:00:00,49.6,41.0,29.15,North,-999,-999.0,0.0,71,0.00,,,0.00,WeatherTracker,2013-05-04 22:00:00,
2013-05-04 17:10:00,50.4,41.0,29.15,North,-999,-999.0,0.0,69,0.00,,,0.00,WeatherTracker,2013-05-04 22:10:00,
2013-05-04 17:20:00,50.2,39.2,29.15,North,-999,-999.0,0.0,67,0.00,,,0.00,WeatherTracker,2013-05-04 22:20:00,
2013-05-04 17:30:00,52.9,42.8,29.15,North,-999,-999.0,0.0,67,0.00,,,0.00,WeatherTracker,2013-05-04 22:30:00,
2013-05-04 17:40:00,53.6,37.4,29.15,North,-999,-999.0,0.0,55,0.00,,,0.00,WeatherTracker,2013-05-04 22:40:00,
2013-05-04 17:45:00,55.2,41.0,29.15,North,-999,-999.0,0.0,57,0.00,,,0.00,WeatherTracker,2013-05-04 22:45:00,
2013-05-04 17:50:00,54.9,39.2,29.15,North,-999,-999.0,0.0,53,0.00,,,0.00,WeatherTracker,2013-05-04 22:50:00,
2013-05-04 17:55:00,54.3,37.4,29.15,North,-999,-999.0,0.0,52,0.00,,,0.00,WeatherTracker,2013-05-04 22:55:00,
2013-05-04 18:05:00,52.5,33.8,29.15,North,-999,-999.0,0.0,50,0.00,,,0.00,WeatherTracker,2013-05-04 23:05:00,
2013-05-04 18:10:00,51.8,33.8,29.15,North,-999,-999.0,0.0,50,0.00,,,0.00,WeatherTracker,2013-05-04 23:10:00,
2013-05-04 18:20:00,50.9,35.6,29.15,North,-999,-999.0,0.0,54,0.00,,,0.00,WeatherTracker,2013-05-04 23:20:00,
2013-05-04 18:30:00,50.4,35.6,29.15,North,-999,-999.0,0.0,55,0.00,,,0.00,WeatherTracker,2013-05-04 23:30:00,
2013-05-04 18:35:00,50.2,33.8,29.15,North,-999,-999.0,0.0,55,0.00,,,0.00,WeatherTracker,2013-05-04 23:35:00,
2013-05-04 18:45:00,51.1,35.6,29.15,North,-999,-999.0,0.0,56,0.00,,,0.00,WeatherTracker,2013-05-04 23:45:00,
2013-05-04 18:55:00,51.6,37.4,29.15,North,-999,-999.0,0.0,56,0.00,,,0.00,WeatherTracker,2013-05-04 23:55:00,
2013-05-04 19:00:00,51.6,35.6,29.15,North,-999,-999.0,0.0,53,0.00,,,0.00,WeatherTracker,2013-05-05 00:00:00,
2013-05-04 19:10:00,50.9,33.8,29.15,North,-999,-999.0,0.0,52,0.00,,,0.00,WeatherTracker,2013-05-05 00:10:00,
2013-05-04 19:15:00,50.7,33.8,29.15,North,-999,-999.0,0.0,52,0.00,,,0.00,WeatherTracker,2013-05-05 00:15:00,
2013-05-04 19:25:00,50.5,33.8,29.15,North,-999,-999.0,0.0,52,0.00,,,0.00,WeatherTracker,2013-05-05 00:25:00,
2013-05-04 19:30:00,50.5,33.8,29.15,North,-999,-999.0,0.0,52,0.00,,,0.00,WeatherTracker,2013-05-05 00:30:00,
2013-05-04 19:35:00,50.4,33.8,29.15,North,-999,-999.0,0.0,52,0.00,,,0.00,WeatherTracker,2013-05-05 00:35:00,
2013-05-04 19:40:00,50.2,33.8,29.18,North,-999,-999.0,0.0,52,0.00,,,0.00,WeatherTracker,2013-05-05 00:40:00,
2013-05-04 19:50:00,50.0,33.8,29.18,North,-999,-999.0,0.0,53,0.00,,,0.00,WeatherTracker,2013-05-05 00:50:00,
2013-05-04 19:55:00,50.0,33.8,29.18,North,-999,-999.0,0.0,54,0.00,,,0.00,WeatherTracker,2013-05-05 00:55:00,
2013-05-04 20:05:00,49.5,33.8,29.18,North,-999,-999.0,0.0,55,0.00,,,0.00,WeatherTracker,2013-05-05 01:05:00,
2013-05-04 20:10:00,49.3,33.8,29.18,North,-999,-999.0,0.0,56,0.00,,,0.00,WeatherTracker,2013-05-05 01:10:00,
2013-05-04 20:15:00,48.9,33.8,29.18,North,-999,-999.0,0.0,57,0.00,,,0.00,WeatherTracker,2013-05-05 01:15:00,
2013-05-04 20:25:00,48.9,35.6,29.18,North,-999,-999.0,0.0,58,0.00,,,0.00,WeatherTracker,2013-05-05 01:25:00,
2013-05-04 20:30:00,48.9,35.6,29.18,North,-999,-999.0,0.0,58,0.00,,,0.00,WeatherTracker,2013-05-05 01:30:00,
2013-05-04 20:40:00,48.9,35.6,29.18,North,-999,-999.0,0.0,59,0.00,,,0.00,WeatherTracker,2013-05-05 01:40:00,
2013-05-04 20:45:00,48.7,35.6,29.18,North,-999,-999.0,0.0,60,0.00,,,0.00,WeatherTracker,2013-05-05 01:45:00,
2013-05-04 20:50:00,48.7,35.6,29.18,North,-999,-999.0,0.0,61,0.00,,,0.00,WeatherTracker,2013-05-05 01:50:00,
2013-05-04 20:55:00,48.7,35.6,29.18,North,-999,-999.0,0.0,61,0.00,,,0.00,WeatherTracker,2013-05-05 01:55:00,
2013-05-04 21:00:00,48.6,37.4,29.18,North,-999,-999.0,0.0,62,0.00,,,0.00,WeatherTracker,2013-05-05 02:00:00,
2013-05-04 21:05:00,48.6,37.4,29.18,North,-999,-999.0,0.0,62,0.00,,,0.00,WeatherTracker,2013-05-05 02:05:00,
2013-05-04 21:15:00,48.4,37.4,29.18,North,-999,-999.0,0.0,63,0.00,,,0.00,WeatherTracker,2013-05-05 02:15:00,
2013-05-04 21:20:00,48.4,37.4,29.18,North,-999,-999.0,0.0,64,0.00,,,0.00,WeatherTracker,2013-05-05 02:20:00,
2013-05-04 21:25:00,48.4,37.4,29.21,North,-999,-999.0,0.0,63,0.00,,,0.00,WeatherTracker,2013-05-05 02:25:00,
2013-05-04 21:35:00,48.4,37.4,29.21,North,-999,-999.0,0.0,64,0.00,,,0.00,WeatherTracker,2013-05-05 02:35:00,
2013-05-04 21:45:00,48.4,37.4,29.21,North,-999,-999.0,0.0,64,0.00,,,0.00,WeatherTracker,2013-05-05 02:45:00,
2013-05-04 21:50:00,48.4,37.4,29.21,North,-999,-999.0,0.0,64,0.00,,,0.00,WeatherTracker,2013-05-05 02:50:00,
2013-05-04 21:55:00,48.4,37.4,29.21,North,-999,-999.0,0.0,64,0.00,,,0.00,WeatherTracker,2013-05-05 02:55:00,
2013-05-04 22:00:00,48.4,37.4,29.21,North,-999,-999.0,0.0,64,0.00,,,0.00,WeatherTracker,2013-05-05 03:00:00,
2013-05-04 22:10:00,48.4,37.4,29.21,North,-999,-999.0,0.0,64,0.00,,,0.00,WeatherTracker,2013-05-05 03:10:00,
2013-05-04 22:15:00,48.4,37.4,29.21,North,-999,-999.0,0.0,63,0.00,,,0.00,WeatherTracker,2013-05-05 03:15:00,
2013-05-04 22:25:00,48.4,35.6,29.21,North,-999,-999.0,0.0,62,0.00,,,0.00,WeatherTracker,2013-05-05 03:25:00,
2013-05-04 22:30:00,48.2,37.4,29.21,North,-999,-999.0,0.0,63,0.00,,,0.00,WeatherTracker,2013-05-05 03:30:00,
2013-05-04 22:35:00,48.2,37.4,29.21,North,-999,-999.0,0.0,63,0.00,,,0.00,WeatherTracker,2013-05-05 03:35:00,
2013-05-04 22:45:00,48.0,37.4,29.21,North,-999,-999.0,0.0,64,0.00,,,0.00,WeatherTracker,2013-05-05 03:45:00,
2013-05-04 22:50:00,48.0,37.4,29.21,North,-999,-999.0,0.0,65,0.00,,,0.00,WeatherTracker,2013-05-05 03:50:00,
2013-05-04 23:00:00,48.0,37.4,29.21,North,-999,-999.0,0.0,64,0.00,,,0.00,WeatherTracker,2013-05-05 04:00:00,
2013-05-04 23:05:00,48.0,37.4,29.21,North,-999,-999.0,0.0,63,0.00,,,0.00,WeatherTracker,2013-05-05 04:05:00,
2013-05-04 23:10:00,48.0,37.4,29.21,North,-999,-999.0,0.0,63,0.00,,,0.00,WeatherTracker,2013-05-05 04:10:00,
2013-05-04 23:15:00,48.0,37.4,29.21,North,-999,-999.0,0.0,63,0.00,,,0.00,WeatherTracker,2013-05-05 04:15:00,
2013-05-04 23:20:00,47.8,37.4,29.21,North,-999,-999.0,0.0,63,0.00,,,0.00,WeatherTracker,2013-05-05 04:20:00,
2013-05-04 23:30:00,47.8,37.4,29.21,North,-999,-999.0,0.0,64,0.00,,,0.00,WeatherTracker,2013-05-05 04:30:00,
2013-05-04 23:35:00,47.7,37.4,29.21,North,-999,-999.0,0.0,64,0.00,,,0.00,WeatherTracker,2013-05-05 04:35:00,
2013-05-04 23:40:00,47.7,37.4,29.21,North,-999,-999.0,0.0,66,0.00,,,0.00,WeatherTracker,2013-05-05 04:40:00,
2013-05-04 23:50:00,47.7,37.4,29.21,North,-999,-999.0,0.0,66,0.00,,,0.00,WeatherTracker,2013-05-05 04:50:00,
2013-05-04 23:55:00,47.7,37.4,29.21,North,-999,-999.0,0.0,67,0.00,,,0.00,WeatherTracker,2013-05-05 04:55:00,